Weather in Chernorechye

Russia / Orenburg Oblast     51°47′26″N   54°48′13″E
temp.,
°C
wind,
m/s
gust,
m/s
humid.,
%
clouds,
%
prec.,
mm/h
press.,
hPa
HPBL,
m
28 september, tue
tue2823:00+4e697898 3.7 1010622
02:00+3ne5873100 0.0 1012483
05:00+3nne6984100 0.0 1012562
08:00+3nne61095100 0.0 1014584
11:00+5ne7974100 0.1 10151103
14:00+7ne6856100 0.0 10161476
17:00+9ne694996 0.1 10171625
20:00+7ne5105899 0.0 1019639
29 september, wed
wed2923:00+5ne496960 0.1 1021277
02:00+4nne586918 0.0 1021319
05:00+2nne5107484 0.0 1022258
08:00+2nne4107499 0.0 1023320
11:00+7nne565132 0.0 1024807
14:00+10nne45365 0.0 10231665
17:00+10nne563260 0.0 10232041
20:00+8nne364394 0.0 1024121
30 september, thu
thu3023:00+5ne225286 0.0 102628
02:00+4ne22625 0.0 102625
05:00+3nne23685 0.0 102734
08:00+2nne34705 0.0 102892
11:00+8nne33495 0.0 1028650
14:00+10n333793 0.0 10282044
17:00+11nnw443174 0.0 10272082
20:00+8nnw354083 0.0 1028106
1 october, fri
fri123:00+6nw33442 0.0 102937
02:00+4nw33495 0.0 102933
05:00+4nw22575 0.0 103023
08:00+3wnw33645 0.0 103056
11:00+7wnw4553100 0.0 1031471
14:00+8w5665100 0.0 1031543
17:00+9w4662100 0.0 1031662
20:00+9w3672100 0.0 1031228
2 october, sat
sat223:00+8wnw2580100 0.0 1031220
02:00+8w2381100 0.0 103286
05:00+8w247997 0.0 1032144
08:00+8w357991 0.1 1032176
11:00+12w456471 0.1 1032536
14:00+14wnw445672 0.0 1031997
17:00+15wnw555269 0.0 10311284
20:00+12wnw366499 0.0 1031205